Weather in Ol'khi

Russia / Tula Oblast     53°29′49″N   37°11′59″E
temp.,
°C
wind,
m/s
gust,
m/s
humid.,
%
clouds,
%
prec.,
mm/h
press.,
hPa
HPBL,
m
22 january, sat
sat2200:00−5s71495100 1.0 999706
03:00−5ssw61295100 1.7 1000526
06:00−4s51096100 1.0 1001501
09:00−4ssw499689 1.6 1003394
12:00−4ssw479594 0.3 1006455
15:00−5s469496 0.3 1007370
18:00−7s369791 0.1 1010150
21:00−10sse249892 0.3 101343
23 january, sun
sun2300:00−12sse2210097 0.1 101534
03:00−13se2299100 0.1 101735
06:00−16se22100100 0.0 102029
09:00−17ese22100100 0.0 102421
12:00−9e239786 0.0 1026101
15:00−8ne359619 0.1 1027134
18:00−15ne359981 0.0 103144
21:00−16ne36100100 0.0 103370
24 january, mon
mon2400:00−16ne48100100 0.0 103491
03:00−15nne411100100 0.0 1034154
06:00−15nne51399100 0.0 1034201
09:00−13ne5149797 0.1 1035253
12:00−9ne61395100 0.1 1034326
15:00−8ne5119697 0.1 1033308
18:00−11ne4119671 0.0 1033196
21:00−13ne499881 0.0 1033127
25 january, tue
tue2500:00−14ene3698100 0.0 103277
03:00−15ene2497100 0.0 103049
06:00−17e349843 0.0 102948
09:00−17ese259856 0.0 102761
12:00−11se3594100 0.0 1025149
15:00−10se239559 0.0 1023130
18:00−12sse249776 0.1 102273
21:00−11sse379660 0.2 1021148
26 january, wed
wed2600:00−11s369793 0.1 1020122
03:00−13sse249898 0.1 101949
06:00−12sse259799 0.3 101790
09:00−11s369699 0.5 1017169
12:00−8s4693100 0.2 1016380
15:00−8s359397 0.4 1016463
18:00−10s369767 0.1 1017132
21:00−11s369776 0.2 1017122